◎1999年5月以後の彗星発見数

 次の何の意味もない軌道要素は,過去1年間に発見された彗星です. 全部で92個あります.すごいなぁ.SOHOを省くと,45個になりますが, それでも,すごいですね. 標準等級 彗星名 H1 K1 T /TT q e P ω Ω i C/1999 J1 (SOHO) 1999 05 08.50 0.0062 1.0 83.51 7.70 142.66 C/1999 J2 (Skiff) 1.5 10 2000 04 05.8935 7.109953 1.001061 127.1317 50.0430 86.4126 C/1999 J3 (LINEAR) 8.5 15 1999 09 20.1671 0.976822 0.999483 161.9807 228.9798 101.6566 C/1999 J4 (LINEAR) 8.5 10 1999 11 17.6088 3.780400 1.0 95.1591 264.4841 118.9108 P/1999 J5 (LINEAR) 9.5 10 1999 05 12.8467 3.712687 0.169641 9.45 132.2885 112.0163 13.7169 C/1999 J6 (SOHO) 1999 05 11.59 0.0492 1.0 22.47 81.69 26.53 C/1999 K1 (SOHO) 1999 05 21.37 0.0051 1.0 83.51 5.49 143.78 C/1999 K2 (Ferris) 5.5 10 1999 04 10.4754 5.290295 0.965878 4.5636 300.3182 82.1903 C/1999 K3 (LINEAR) 12.0 10 1999 02 27.5306 1.928764 0.991749 341.1481 266.9130 92.2727 C/1999 K4 (LINEAR) 18.0 10 1999 05 16.3375 1.448315 1.0 8.8326 241.6368 121.3102 C/1999 K5 (LINEAR) 5.5 10 2000 07 04.3795 3.255421 1.001731 241.4850 106.3818 89.4734 C/1999 K6 (LINEAR) 9.5 10 1999 07 24.6736 2.246977 0.993520 56.7633 245.3721 46.3439 C/1999 K7 (LINEAR) 11.0 10 1999 02 25.0473 2.324238 1.0 104.7378 50.3130 135.1698 C/1999 K8 (LINEAR) 4.5 10 2000 04 24.3380 4.200354 1.000900 164.6290 195.3946 52.7332 C/1999 K9 (SOHO) 1999 05 24.48 0.0065 1.0 84.91 8.45 142.66 C/1999 K10 (SOHO) 1999 06 01.35 0.0055 1.0 84.21 5.29 144.89 C/1999 L1 (SOHO) 1999 06 05.90 0.0053 1.0 80.66 1.10 143.91 C/1999 L2 (LINEAR) 11.5 10 1999 08 04.8904 1.904759 0.995149 178.7186 94.2896 43.9424 C/1999 L3 (LINEAR) 8.5 10 2000 01 04.9080 1.988915 0.974313 681 353.2975 140.1610 166.0993 C/1999 L4 (SOHO) 1999 06 02.02 0.0078 1.0 70.86 348.49 137.95 C/1999 L5 (SOHO) 1999 06 11.58 0.0077 1.0 85.28 6.76 144.42 C/1999 M1 (SOHO) 1999 06 16.93 0.0055 1.0 86.30 7.64 144.21 C/1999 M2 (SOHO) 1999 06 27.72 0.0049 1.0 85.74 6.91 144.33 C/1999 N1 (SOHO) 1999 07 01.69 0.0052 1.0 91.95 13.70 142.78 C/1999 N2 (Lynn) 8.5 7 1999 07 23.0505 0.761284 0.997459 357.8340 254.6757 111.6561 C/1999 N3 (SOHO) 1999 07 10.38 0.0055 1.0 85.58 7.02 144.43 C/1999 N4 (LINEAR) 6.0 10 2000 05 23.6093 5.505235 1.004229 90.4142 345.9017 156.9229 C/1999 O1 (SOHO) 1999 08 01.12 0.0051 1.0 78.96 359.34 144.42 C/1999 O2 (SOHO) 1999 07 22.56 0.0079 1.0 62.39 338.37 139.26 C/1999 O3 (SOHO) 1999 08 01.36 0.0052 1.0 89.76 10.06 143.44 141P/Machholz 2-A (1999 P1) 12.0 30 1999 12 09.2742 0.748933 0.751066 5.22 149.3010 246.1372 12.8113 C/1999 P2 (SOHO) 1999 08 06.18 0.0084 1.0 82.37 4.43 144.76 C/1999 P3 (SOHO) 1999 08 04.06 0.0063 1.0 84.02 5.59 144.16 C/1999 P4 (SOHO) 1999 08 10.14 0.0050 1.0 89.07 10.74 144.33 C/1999 P5 (SOHO) 1999 08 12.99 0.0063 1.0 72.99 355.21 144.69 C/1999 Q1 (SOHO) 1999 08 24.47 0.0053 1.0 96.26 15.74 142.16 C/1999 Q2 (SOHO) 1999 08 25.10 0.0050 1.0 79.36 0.48 144.55 C/1999 Q3 (SOHO) 1999 08 31.74 0.0052 1.0 86.52 7.55 144.42 C/1999 R1 (SOHO) 1999 09 05.52 0.0565 1.0 43.74 5.22 13.69 142P/Ge-Wang (1999 R2) 13.5 10 1999 06 21.4788 2.496395 0.500320 11.2 177.3858 177.1399 12.1732 C/1999 R3 (SOHO) 1999 09 06.08 0.0053 1.0 79.73 1.53 144.37 C/1999 R4 (SOHO) 1999 09 06.62 0.0051 1.0 83.00 3.17 143.91 P/1999 RO28 (LONEOS) 18.5 10 1999 10 02.3460 1.231710 0.650640 6.62 219.8626 148.4490 8.1894 C/1999 S1 (SOHO) 1999 09 17.87 0.0050 1.0 80.28 1.11 144.06 C/1999 S2 (McNaught-Watson) 2.5 10 1997 11 22.4887 6.466989 1.006713 223.4791 74.4317 65.8126 P/1999 S3 (LINEAR) 9.0 10 1999 11 09.0096 1.894980 0.900048 82.6 44.1252 11.8788 70.5622 C/1999 S4 (LINEAR) 6.0 10 2000 07 26.1664 0.764970 0.999992 151.0685 83.1902 149.3897 C/1999 S5 (SOHO) 1999 09 21.40 0.0050 1.0 86.17 4.08 143.59 C/1999 S6 (SOHO) 1999 09 21.81 0.0050 1.0 94.41 9.72 143.44 C/1999 S7 (SOHO) 1999 09 24.95 0.0051 1.0 82.08 3.20 143.99 C/1999 T1 (McNaught-Hartley) 4.5 10 2000 12 13.4628 1.171560 1.000028 344.7594 182.4839 79.9769 C/1999 T2 (LINEAR) 5.0 10 2000 11 24.4686 3.037129 1.002078 104.6737 14.8790 111.0004 C/1999 T3 (LINEAR) 6.0 10 2000 09 01.6922 5.365127 0.996962 211.3389 223.5119 104.7527 C/1999 U1 (Ferris) 6.5 10 1998 09 02.9334 4.136725 1.003288 291.0443 58.2585 105.7271 C/1999 U2 (SOHO) 1999 10 25.23 0.0492 1.0 22.22 82.05 27.05 P/1999 U3 (LINEAR) 13.5 10 1999 11 18.4668 1.846330 0.619145 10.7 111.3158 306.9784 20.3946 C/1999 U4 (Catalina-Skiff) 4.5 10 2001 10 28.3558 4.914143 1.008144 77.5231 32.2883 51.9240 C/1999 U5 (SOHO) 1999 11 01.40 0.0072 1.0 54.48 331.61 132.50 P/1999 V1 (Catalina) 10.0 10 1999 10 25.0500 2.944273 0.550506 16.8 186.6923 294.3111 15.5869 C/1999 W1 (SOHO) 1999 11 23.64 0.0088 1.0 87.47 9.34 136.57 P/1999 WJ7 (Korlevic) 9.0 10 2000 02 15.2582 3.167792 0.316312 9.97 154.4221 290.5303 2.9794 P/1999 X1 (Hug-Bell) 13.0 10 1999 06 20.8337 1.936769 0.472735 7.04 296.9161 103.6511 10.9687 P/1999 XB69 (LINEAR) 14.0 10 2000 02 17.0403 1.639255 0.631984 9.40 220.1818 256.1667 11.3364 P/1999 XS87 (LINEAR) 10.0 10 1999 08 06.6066 2.771791 0.841024 72.8 151.3507 266.7311 14.8443 P/1999 XN120 (Catalina) 9.0 10 2000 05 01.5442 3.286267 0.213181 8.54 161.8247 285.4553 5.0308 C/1999 Y1 (LINEAR) 5.5 10 2001 03 24.1212 3.091070 1.000570 184.2879 188.8831 134.7872 C/1999 Y2 (SOHO) 1999 12 28.71 0.0483 1.0 342.21 235.50 111.42 C/1999 Y3 (SOHO) 1999 12 21.88 0.0056 1.0 85.05 6.49 144.43 C/2000 A1 (Montani) 3.5 10 2000 07 02.5482 9.755490 1.0 13.7543 111.8461 24.5823 C/2000 B1 (SOHO) 2000 01 25.83 0.0052 1.0 87.11 8.32 144.47 C/2000 B2 (LINEAR) 9.0 10 1999 11 09.9344 3.776036 1.0 154.5683 284.9897 93.6545 P/2000 B3 (LINEAR) 12.0 10 2000 02 14.1682 1.700253 0.575248 8.01 130.5117 352.1470 11.1263 P/2000 B4 (LINEAR) 6.5 10 2000 06 17.1520 6.828392 0.620816 76.4 126.3345 0.6081 15.9122 C/2000 B5 (SOHO) 2000 01 18.87 0.0054 1.0 82.17 2.86 144.21 C/2000 B6 (SOHO) 2000 01 30.21 0.0052 1.0 84.28 359.24 140.89 C/2000 B7 (SOHO) 2000 02 01.49 0.0050 1.0 79.36 0.45 144.63 P/2000 C1 (Hergenrother) 12.5 10 2000 03 19.8684 2.095559 0.406433 6.63 51.1665 127.0450 6.1055 C/2000 C2 (SOHO) 2000 02 03.76 0.0344 1.0 44.41 41.27 113.92 C/2000 C3 (SOHO) 2000 02 04.84 0.0460 1.0 53.23 4.81 146.19 C/2000 C4 (SOHO) 2000 02 05.44 0.0460 1.0 53.23 4.81 146.19 C/2000 C5 (SOHO) 2000 02 07.88 0.0344 1.0 55.22 41.67 101.94 C/2000 C6 (SOHO) 2000 02 10.71 0.0051 1.0 88.46 10.17 144.12 C/2000 CT54 (LINEAR) 6.0 10 2001 06 19.3651 3.155067 1.0 272.6509 18.9785 49.2234 C/2000 D1 (SOHO) 2000 03 01.07 0.0051 1.0 78.02 0.84 144.61 C/2000 D2 (LINEAR) 12.5 10 2000 03 02.6729 2.323051 1.0 115.5323 235.7915 156.8565 C/2000 D3 (SOHO) 2000 02 26.65 0.0066 1.0 68.93 339.90 139.71 C/2000 E1 (SOHO) 2000 03 05.55 0.0050 1.0 89.13 9.73 144.33 143P/Kowal-Mrkos (2000 ET90) 11.0 10 2000 07 01.8035 2.546791 0.409022 8.95 320.5886 245.5014 4.6837 C/2000 F1 (SOHO) 2000 04 01.52 0.0060 1.0 88.92 7.52 144.40 P/2000 G1 (LINEAR) 17.0 10 2000 03 09.7957 1.002933 0.673970 5.40 343.2782 191.0478 10.4012 P/2000 G2 (LINEAR) 12.5 10 2000 02 06.1533 2.716730 0.809007 53.6 101.7505 328.3872 170.4791 C/2000 H1 (LINEAR) 9.5 10 2000 02 01.7143 3.644044 1.0 79.6283 356.5315 118.2311 NAKANO **** Don't distribute anyone except personal use only **** (C) Copyright 2000 OAA/ComputingSection write mail from CFAD0::NAKANO on 2000-05-09 04:26:30(JST).


メニュ−ペ−ジに戻ります。